Tacoma Narrows, WA
on Friday, February 15, 2013

Friday
Previous Day Next Day
Daily Summary
 ActualAverageRecord
Temperature
Mean Temperature °F °F  
Max Temperature 52°F 46°F 55°F (1997)
Min Temperature 41°F 36°F 28°F (2005)
Degree Days
Heating Degree Days 18    
Moisture
Dew Point 41°F   
Average Humidity 82    
Maximum Humidity 93    
Minimum Humidity 63    
Precipitation
Precipitation 0.00 in in in ()
Wind
Wind Speed 4 mph   
Max Wind Speed 8 mph   
Max Gust Speed mph   
Visibility 10 miles   
Events     
Averages and records for this station are not official NWS values.
Key: T is trace of precipitation, MM is missing value
Source: NWS Daily Summary
Seasonal Weather Averages
Time(PST)TemperatureDew PointHumidity Pressure Visibility Wind DirectionWind SpeedGust SpeedPrecipitationEvents Conditions
12:53 AM 46.0°F 43.0°F 89% 30.55 in 9.0 miles Calm Calm - N/A   Overcast
1:53 AM 46.0°F 43.0°F 89% 30.54 in 9.0 miles NNW 3.5 mph - N/A   Overcast
2:12 AM 46.4°F 42.8°F 87% 30.53 in 10.0 miles North 4.6 mph - N/A   Overcast
2:53 AM 46.0°F 43.0°F 89% 30.53 in 9.0 miles NNW 4.6 mph - N/A   Overcast
3:27 AM 46.4°F 42.8°F 87% 30.50 in 9.0 miles North 4.6 mph - N/A   Overcast
3:46 AM 46.4°F 42.8°F 87% 30.50 in 8.0 miles North 4.6 mph - N/A   Overcast
3:53 AM 45.0°F 43.0°F 93% 30.51 in 8.0 miles North 4.6 mph - N/A   Overcast
4:53 AM 45.0°F 42.1°F 90% 30.49 in 8.0 miles North 5.8 mph - N/A   Overcast
5:53 AM 45.0°F 42.1°F 90% 30.48 in 10.0 miles North 5.8 mph - N/A   Overcast
6:16 AM 44.6°F 41.0°F 87% 30.47 in 10.0 miles NNE 5.8 mph - N/A   Overcast
6:53 AM 44.1°F 41.0°F 89% 30.47 in 10.0 miles NNE 6.9 mph - N/A   Overcast
7:19 AM 44.6°F 42.8°F 93% 30.47 in 10.0 miles North 5.8 mph - N/A   Overcast
7:53 AM 44.1°F 41.0°F 89% 30.47 in 10.0 miles NE 3.5 mph - N/A   Overcast
8:05 AM 44.6°F 41.0°F 87% 30.46 in 10.0 miles NE 6.9 mph - N/A   Overcast
8:53 AM 44.1°F 41.0°F 89% 30.46 in 10.0 miles Variable 5.8 mph - N/A   Overcast
9:53 AM 44.1°F 39.9°F 85% 30.45 in 9.0 miles NE 4.6 mph - N/A   Overcast
10:23 AM 44.6°F 39.2°F 81% 30.44 in 10.0 miles North 5.8 mph - N/A   Overcast
10:53 AM 45.0°F 39.9°F 82% 30.44 in 10.0 miles Calm Calm - N/A   Overcast
11:26 AM 46.4°F 39.2°F 76% 30.42 in 10.0 miles North 8.1 mph - N/A   Scattered Clouds
11:53 AM 46.9°F 39.9°F 77% 30.41 in 10.0 miles NE 6.9 mph - N/A   Scattered Clouds
12:53 PM 48.9°F 39.9°F 71% 30.38 in 10.0 miles North 6.9 mph - N/A   Clear
1:53 PM 51.1°F 39.0°F 63% 30.33 in 10.0 miles North 6.9 mph - N/A   Clear
2:53 PM 51.1°F 39.9°F 66% 30.30 in 10.0 miles Variable 4.6 mph - N/A   Clear
3:53 PM 52.0°F 39.9°F 63% 30.28 in 10.0 miles NNE 5.8 mph - N/A   Clear
4:53 PM 51.1°F 39.9°F 66% 30.26 in 10.0 miles NNE 4.6 mph - N/A   Clear
5:53 PM 50.0°F 39.9°F 68% 30.24 in 10.0 miles NNE 4.6 mph - N/A   Clear
6:53 PM 46.9°F 41.0°F 80% 30.23 in 10.0 miles NNE 4.6 mph - N/A   Clear
7:53 PM 46.0°F 41.0°F 83% 30.23 in 10.0 miles NNE 4.6 mph - N/A   Clear
8:53 PM 45.0°F 39.9°F 82% 30.24 in 10.0 miles NNE 3.5 mph - N/A   Clear
9:53 PM 45.0°F 39.9°F 82% 30.22 in 10.0 miles Calm Calm - N/A   Clear
10:53 PM 42.1°F 37.9°F 85% 30.21 in 10.0 miles Calm Calm - N/A   Clear
11:53 PM 41.0°F 37.9°F 89% 30.19 in 10.0 miles Calm Calm - N/A   Clear
Moon Phase
Feb. 15 Feb. 17 Feb. 25 Mar. 04 Mar. 11
Sunrise:07:14 AM (PST) Moon Rise:09:27 AM (PST)2/15
Sunset:05:34 PM (PST) Moon Set:No Moon Set/

Copyright © 2014 The Weather Underground, Inc.